Location: Sungai Jaoh
(2.9167°N, 113.9167°E)
Time: 06:03:40
(UTC+00:00)

ATLAS CENTAUR R/B - Pass Details

Date: 30 November 2020
Orbit: 477 x 668 km, 64.7° (Epoch: 12 January)

Event Time Altitude Azimuth Distance (km) Brightness Sun altitude
Rises 11:58:31 0° 215° (SW) 2,798 5.8 -25.5°
Reaches altitude 10° 12:00:56 10° 223° (SW) 1,861 4.9 -26.0°
Maximum altitude 12:04:47 37° 291° (WNW) 851 2.5 -26.9°
Enters shadow 12:04:49 37° 292° (WNW) 851 2.5 -26.9°
